N5KR Weather Reports


time (UTC)temp
C
wind
direction
speed
KPH
gust
KPH
rain 1hr
cm
rain 24hr
cm
rain mn
cm
humidity
%
barometer
mb
20260505122004 21 202 11.3 25.7 0.00 0.00 0.00 83 1004.4
20260505121504 21 193 11.3 25.7 0.00 0.00 0.00 83 1004.4
20260505121004 21 197 14.5 25.7 0.00 0.00 0.00 83 1004.4
20260505120504 21 203 9.7 24.1 0.00 0.00 0.00 82 1004.4
20260505120005 21 205 11.3 25.7 0.00 0.00 0.00 82 1004.2
20260505115504 21 177 11.3 29.0 0.00 0.00 0.00 82 1004.2
20260505115004 21 215 12.9 32.2 0.00 0.00 0.00 82 1004.1
20260505114504 21 189 8.0 22.5 0.00 0.00 0.00 82 1004.2
20260505114004 21 193 11.3 27.4 0.00 0.00 0.00 82 1004.3
20260505113505 21 192 8.0 19.3 0.00 0.00 0.00 82 1004.2
20260505113004 22 202 9.7 37.0 0.00 0.00 0.00 82 1004.1
20260505112504 21 179 11.3 24.1 0.00 0.00 0.00 82 1004.2
20260505112004 21 233 12.9 27.4 0.00 0.00 0.00 82 1004.1
20260505111504 21 190 9.7 27.4 0.00 0.00 0.00 82 1004.1
20260505111004 21 178 11.3 41.8 0.00 0.00 0.00 82 1004.4
20260505110504 21 239 4.8 27.4 0.00 0.00 0.00 82 1004.3
20260505102004 21 205 12.9 24.1 0.00 0.00 0.00 82 1004.3
20260505101504 21 223 11.3 22.5 0.00 0.00 0.00 82 1004.3
20260505101004 21 187 12.9 33.8 0.00 0.00 0.00 82 1004.2
20260505100504 21 202 9.7 22.5 0.00 0.00 0.00 82 1004.3
20260505095504 21 187 19.3 32.2 0.00 0.00 0.00 82 1004.3
20260505095004 21 200 11.3 25.7 0.00 0.00 0.00 82 1004.5
20260505094504 21 195 12.9 25.7 0.00 0.00 0.00 82 1004.4
20260505093504 21 200 6.4 25.7 0.00 0.00 0.00 82 1004.6
20260505093004 21 203 9.7 24.1 0.00 0.00 0.00 82 1004.6
20260505092504 21 195 11.3 22.5 0.00 0.00 0.00 82 1004.6
20260505092004 21 189 11.3 24.1 0.00 0.00 0.00 82 1004.7
20260505091504 21 204 8.0 19.3 0.00 0.00 0.00 82 1004.7
20260505091004 21 198 11.3 20.9 0.00 0.00 0.00 82 1004.8
20260505090504 21 217 12.9 24.1 0.00 0.00 0.00 82 1004.7
20260505090004 21 208 11.3 27.4 0.00 0.00 0.00 82 1004.7
20260505085503 21 192 11.3 20.9 0.00 0.00 0.00 82 1004.7
20260505085003 21 204 12.9 33.8 0.00 0.00 0.00 82 1004.7
20260505084504 21 190 9.7 32.2 0.00 0.00 0.00 82 1004.7
20260505084003 21 205 11.3 25.7 0.00 0.00 0.00 82 1004.8
20260505083504 21 199 11.3 25.7 0.00 0.00 0.00 81 1004.8
20260505083004 21 177 14.5 27.4 0.00 0.00 0.00 81 1004.8
20260505082504 21 183 14.5 33.8 0.00 0.00 0.00 81 1004.8
20260505081503 21 188 11.3 22.5 0.00 0.00 0.00 81 1004.8
20260505081004 21 181 11.3 22.5 0.00 0.00 0.00 81 1004.9
20260505080504 21 171 11.3 20.9 0.00 0.00 0.00 80 1004.8
20260505075506 22 181 9.7 32.2 0.00 0.00 0.00 80 1005.1
20260505075007 22 186 16.1 25.7 0.00 0.00 0.00 79 1005.1
20260505074507 22 191 12.9 32.2 0.00 0.00 0.00 79 1005.1
20260505074007 22 200 9.7 22.5 0.00 0.00 0.00 79 1005.3
20260505073507 22 184 14.5 27.4 0.00 0.00 0.00 79 1005.3
20260505073006 22 189 11.3 27.4 0.00 0.00 0.00 79 1005.5
20260505072507 22 199 16.1 32.2 0.00 0.00 0.00 78 1005.7
20260505072006 22 195 8.0 25.7 0.00 0.00 0.00 78 1005.7
20260505071507 22 198 8.0 20.9 0.00 0.00 0.00 78 1005.7
20260505071006 22 193 9.7 38.6 0.00 0.00 0.00 77 1005.7
20260505070507 22 197 14.5 25.7 0.00 0.00 0.00 77 1005.9
20260505065506 22 197 9.7 16.1 0.00 0.00 0.00 77 1005.8
20260505064506 22 192 12.9 24.1 0.00 0.00 0.00 76 1006.0
20260505064006 22 192 11.3 27.4 0.00 0.00 0.00 76 1006.1
20260505063506 22 184 16.1 24.1 0.00 0.00 0.00 76 1006.1
20260505062506 22 194 11.3 24.1 0.00 0.00 0.00 75 1006.1
20260505062007 22 186 11.3 25.7 0.00 0.00 0.00 75 1006.1
20260505061507 22 195 9.7 20.9 0.00 0.00 0.00 75 1006.1
20260505061007 22 190 9.7 24.1 0.00 0.00 0.00 75 1006.1
20260505060507 22 189 12.9 29.0 0.00 0.00 0.00 75 1006.0
20260505055506 22 178 11.3 32.2 0.00 0.00 0.00 75 1006.1
20260505054506 22 184 17.7 33.8 0.00 0.00 0.00 74 1006.3
20260505054007 22 179 14.5 24.1 0.00 0.00 0.00 74 1006.3
20260505053506 22 180 16.1 33.8 0.00 0.00 0.00 74 1006.3
20260505053007 22 185 11.3 27.4 0.00 0.00 0.00 73 1006.4
20260505052507 22 174 14.5 24.1 0.00 0.00 0.00 73 1006.5
20260505051507 22 171 12.9 24.1 0.00 0.00 0.00 73 1006.6
20260505051006 22 188 12.9 32.2 0.00 0.00 0.00 73 1006.6
20260505050506 22 183 11.3 24.1 0.00 0.00 0.00 72 1006.5
20260505041506 23 173 17.7 27.4 0.00 0.00 0.00 71 1006.8
20260505041007 23 187 12.9 24.1 0.00 0.00 0.00 70 1006.8
20260505040507 23 172 17.7 29.0 0.00 0.00 0.00 70 1006.8
20260505040006 23 181 14.5 29.0 0.00 0.00 0.00 70 1006.8
20260505035006 23 180 16.1 27.4 0.00 0.00 0.00 70 1006.7
20260505034506 23 183 16.1 25.7 0.00 0.00 0.00 70 1006.6
20260505034006 23 177 17.7 40.2 0.00 0.00 0.00 69 1006.8
20260505033506 23 174 22.5 35.4 0.00 0.00 0.00 69 1006.7
20260505033006 23 175 17.7 27.4 0.00 0.00 0.00 69 1006.8
20260505032006 23 193 14.5 32.2 0.00 0.00 0.00 69 1006.8
20260505031506 23 182 17.7 37.0 0.00 0.00 0.00 69 1006.9
20260505031006 23 167 16.1 32.2 0.00 0.00 0.00 68 1006.8
20260505030506 23 184 17.7 27.4 0.00 0.00 0.00 68 1006.7
20260505030006 23 187 16.1 25.7 0.00 0.00 0.00 68 1006.9
20260505025506 23 189 12.9 25.7 0.00 0.00 0.00 68 1007.0
20260505025007 23 182 14.5 33.8 0.00 0.00 0.00 68 1006.7
20260505024506 23 182 14.5 24.1 0.00 0.00 0.00 68 1006.8
20260505024006 23 182 16.1 33.8 0.00 0.00 0.00 68 1006.9
20260505023506 23 167 11.3 32.2 0.00 0.00 0.00 68 1006.9
20260505022506 23 174 14.5 29.0 0.00 0.00 0.00 67 1006.6
20260505022006 23 184 14.5 27.4 0.00 0.00 0.00 67 1006.7
20260505021506 23 168 16.1 29.0 0.00 0.00 0.00 67 1006.5
20260505020506 23 177 14.5 37.0 0.00 0.00 0.00 66 1006.5
20260505020006 24 185 12.9 25.7 0.00 0.00 0.00 66 1006.5
20260505015506 24 185 19.3 27.4 0.00 0.00 0.00 65 1006.5
20260505015005 24 161 11.3 32.2 0.00 0.00 0.00 65 1006.6
20260505014506 24 187 12.9 38.6 0.00 0.00 0.00 64 1006.5
20260505014006 24 174 14.5 27.4 0.00 0.00 0.00 64 1006.6
20260505013506 24 185 11.3 40.2 0.00 0.00 0.00 64 1006.5
20260505013006 24 186 11.3 20.9 0.00 0.00 0.00 64 1006.6
20260505012506 24 199 14.5 22.5 0.00 0.00 0.00 64 1006.6
20260505011506 25 193 19.3 37.0 0.00 0.00 0.00 63 1006.5
20260505010506 25 193 12.9 22.5 0.00 0.00 0.00 63 1006.5
20260505005506 25 174 12.9 32.2 0.00 0.00 0.00 62 1006.4
20260505005006 25 173 19.3 32.2 0.00 0.00 0.00 62 1006.6
20260505004505 25 181 16.1 37.0 0.00 0.00 0.00 62 1006.5
20260505003006 25 198 11.3 27.4 0.00 0.00 0.00 61 1006.6
20260505002506 25 196 14.5 29.0 0.00 0.00 0.00 61 1006.6
20260505002005 25 188 22.5 38.6 0.00 0.00 0.00 61 1006.7
20260505001506 25 182 19.3 35.4 0.00 0.00 0.00 60 1006.8
20260505001006 25 184 19.3 48.3 0.00 0.00 0.00 60 1006.6
20260505000505 25 191 16.1 32.2 0.00 0.00 0.00 60 1006.6
20260504235006 26 175 20.9 38.6 0.00 0.00 0.00 59 1006.8
20260504234006 26 197 17.7 37.0 0.00 0.00 0.00 59 1006.9
20260504233505 26 197 17.7 37.0 0.00 0.00 0.00 59 1006.9
20260504233006 26 169 19.3 29.0 0.00 0.00 0.00 59 1006.8
20260504232505 26 188 20.9 41.8 0.00 0.00 0.00 58 1006.8
20260504231506 26 195 20.9 33.8 0.00 0.00 0.00 57 1007.0
20260504231005 26 180 19.3 41.8 0.00 0.00 0.00 57 1007.1
20260504230505 26 211 11.3 22.5 0.00 0.00 0.00 57 1007.1
20260504230006 26 192 19.3 35.4 0.00 0.00 0.00 56 1007.1
20260504225505 27 179 17.7 38.6 0.00 0.00 0.00 56 1007.1
20260504225006 27 183 14.5 33.8 0.00 0.00 0.00 56 1007.1
20260504224505 27 196 20.9 33.8 0.00 0.00 0.00 56 1007.2
20260504224005 27 198 19.3 40.2 0.00 0.00 0.00 56 1007.3
20260504223505 27 185 17.7 32.2 0.00 0.00 0.00 55 1007.2
20260504223006 27 176 19.3 41.8 0.00 0.00 0.00 55 1007.1
20260504222505 27 205 16.1 27.4 0.00 0.00 0.00 55 1007.2
20260504222005 27 180 19.3 53.1 0.00 0.00 0.00 55 1007.2
20260504221506 27 192 19.3 49.9 0.00 0.00 0.00 54 1007.3
20260504221005 27 188 16.1 37.0 0.00 0.00 0.00 54 1007.4
20260504220505 27 182 17.7 38.6 0.00 0.00 0.00 55 1007.6
20260504220006 27 180 20.9 35.4 0.00 0.00 0.00 55 1007.6
20260504215006 27 202 16.1 38.6 0.00 0.00 0.00 54 1007.8
20260504214506 27 182 22.5 40.2 0.00 0.00 0.00 54 1007.8
20260504214005 27 175 14.5 35.4 0.00 0.00 0.00 54 1008.0
20260504213505 27 189 16.1 35.4 0.00 0.00 0.00 55 1007.9
20260504213006 27 174 20.9 38.6 0.00 0.00 0.00 54 1007.9
20260504211505 27 189 16.1 29.0 0.00 0.00 0.00 53 1008.3
20260504211005 27 184 19.3 35.4 0.00 0.00 0.00 53 1008.3
20260504210006 27 178 16.1 40.2 0.00 0.00 0.00 54 1008.6
20260504205505 27 175 24.1 40.2 0.00 0.00 0.00 53 1008.6
20260504205005 27 170 14.5 45.1 0.00 0.00 0.00 53 1008.7
20260504204505 27 164 14.5 33.8 0.00 0.00 0.00 53 1008.9
20260504204005 27 170 22.5 45.1 0.00 0.00 0.00 52 1008.9
20260504203505 27 176 19.3 37.0 0.00 0.00 0.00 52 1009.1
20260504203006 27 194 17.7 38.6 0.00 0.00 0.00 52 1009.0
20260504202505 27 170 25.7 48.3 0.00 0.00 0.00 51 1009.2
20260504202006 27 172 22.5 37.0 0.00 0.00 0.00 52 1009.4
20260504201505 27 174 24.1 37.0 0.00 0.00 0.00 51 1009.6
20260504201005 27 188 19.3 45.1 0.00 0.00 0.00 51 1009.5
20260504200505 27 183 22.5 41.8 0.00 0.00 0.00 50 1009.7
20260504200005 27 200 9.7 33.8 0.00 0.00 0.00 52 1009.8
20260504195505 27 201 19.3 33.8 0.00 0.00 0.00 52 1009.9
20260504195005 27 179 16.1 51.5 0.00 0.00 0.00 51 1010.0
20260504194505 27 182 19.3 48.3 0.00 0.00 0.00 50 1010.0
20260504193506 27 195 20.9 37.0 0.00 0.00 0.00 49 1010.0
20260504192505 27 178 19.3 45.1 0.00 0.00 0.00 50 1010.2
20260504192005 27 192 19.3 40.2 0.00 0.00 0.00 50 1010.5
20260504191505 27 186 14.5 27.4 0.00 0.00 0.00 51 1010.5
20260504191005 26 169 25.7 45.1 0.00 0.00 0.00 51 1010.6
20260504190505 27 165 14.5 37.0 0.00 0.00 0.00 50 1010.6
20260504190005 27 182 14.5 33.8 0.00 0.00 0.00 51 1010.6
20260504185505 27 174 8.0 32.2 0.00 0.00 0.00 52 1010.6
20260504185005 26 178 12.9 29.0 0.00 0.00 0.00 51 1010.7
20260504184505 26 169 17.7 29.0 0.00 0.00 0.00 50 1010.7
20260504184005 26 183 16.1 33.8 0.00 0.00 0.00 50 1010.8
20260504183005 26 177 20.9 35.4 0.00 0.00 0.00 50 1010.8
20260504182505 26 160 20.9 38.6 0.00 0.00 0.00 50 1011.0
20260504182005 26 157 17.7 32.2 0.00 0.00 0.00 49 1011.1
20260504181505 26 187 11.3 25.7 0.00 0.00 0.00 49 1011.3
20260504181005 26 198 14.5 27.4 0.00 0.00 0.00 49 1011.2
20260504180505 26 217 11.3 24.1 0.00 0.00 0.00 49 1011.1
20260504180005 26 191 12.9 40.2 0.00 0.00 0.00 49 1011.3
20260504175505 26 184 16.1 35.4 0.00 0.00 0.00 49 1011.2
20260504174505 26 171 19.3 38.6 0.00 0.00 0.00 49 1011.6
20260504174005 26 202 9.7 33.8 0.00 0.00 0.00 49 1011.7
20260504172004 25 181 19.3 41.8 0.00 0.00 0.00 49 1012.3
20260504171505 25 192 16.1 45.1 0.00 0.00 0.00 49 1012.3
20260504171004 25 189 14.5 32.2 0.00 0.00 0.00 49 1012.4
20260504170505 25 206 12.9 27.4 0.00 0.00 0.00 50 1012.5
20260504151005 22 196 11.3 25.7 0.00 0.00 0.00 57 1013.6
20260504150505 22 192 19.3 38.6 0.00 0.00 0.00 58 1013.5